Time,TemperatureF,DewpointF,PressureIn,WindDirection,WindDirectionDegrees,WindSpeedMPH,WindSpeedGustMPH,Humidity,HourlyPrecipIn,Conditions,Clouds,dailyrainin,SoftwareType,DateUTC
2013-01-18 00:00:00,64.4,54.5,30.10,NNW,338,4.7,4.7,70,0.00,,,0.00,WUHU216HW,2013-01-18 05:00:00,
2013-01-18 00:01:00,64.4,54.5,30.10,NNW,338,4.7,4.7,70,0.00,,,0.00,WUHU216HW,2013-01-18 05:01:00,
2013-01-18 00:02:00,64.4,54.5,30.10,NNW,338,4.7,4.7,70,0.00,,,0.00,WUHU216HW,2013-01-18 05:02:00,
2013-01-18 00:03:00,64.4,54.5,30.10,NNW,338,4.7,4.7,70,0.00,,,0.00,WUHU216HW,2013-01-18 05:03:00,
2013-01-18 00:08:00,64.4,54.5,30.10,NNW,338,4.7,4.7,70,0.00,,,0.00,WUHU216HW,2013-01-18 05:08:00,
2013-01-18 00:30:00,64.3,54.4,30.10,NW,315,6.0,6.0,70,0.00,,,0.00,WUHU216HW,2013-01-18 05:30:00,
2013-01-18 00:35:00,64.3,54.4,30.10,NW,315,6.0,6.0,70,0.00,,,0.00,WUHU216HW,2013-01-18 05:35:00,
2013-01-18 00:59:00,64.1,54.2,30.10,NNW,338,5.4,5.4,70,0.00,,,0.00,WUHU216HW,2013-01-18 05:59:00,
2013-01-18 01:00:00,64.1,54.2,30.10,NNW,338,5.4,5.4,70,0.00,,,0.00,WUHU216HW,2013-01-18 06:00:00,
2013-01-18 01:05:00,64.1,54.2,30.10,NNW,338,5.4,5.4,70,0.00,,,0.00,WUHU216HW,2013-01-18 06:05:00,
2013-01-18 01:30:00,64.1,54.2,30.10,NW,315,4.0,4.0,70,0.00,,,0.00,WUHU216HW,2013-01-18 06:30:00,
2013-01-18 01:36:00,64.1,54.2,30.10,NW,315,4.0,4.0,70,0.00,,,0.00,WUHU216HW,2013-01-18 06:36:00,
2013-01-18 02:00:00,63.9,54.4,30.10,NW,315,5.4,5.4,71,0.00,,,0.00,WUHU216HW,2013-01-18 07:00:00,
2013-01-18 02:01:00,63.9,54.4,30.10,NW,315,5.4,5.4,71,0.00,,,0.00,WUHU216HW,2013-01-18 07:01:00,
2013-01-18 02:06:00,63.9,54.4,30.10,NW,315,5.4,5.4,71,0.00,,,0.00,WUHU216HW,2013-01-18 07:06:00,
2013-01-18 02:30:00,63.7,53.8,30.10,WNW,293,2.7,2.7,70,0.00,,,0.00,WUHU216HW,2013-01-18 07:30:00,
2013-01-18 02:35:00,63.7,53.8,30.10,WNW,293,2.7,2.7,70,0.00,,,0.00,WUHU216HW,2013-01-18 07:35:00,
2013-01-18 02:59:00,63.7,53.8,30.10,NW,315,4.0,4.0,70,0.00,,,0.00,WUHU216HW,2013-01-18 07:59:00,
2013-01-18 03:00:00,63.7,53.8,30.10,NW,315,4.0,4.0,70,0.00,,,0.00,WUHU216HW,2013-01-18 08:00:00,
2013-01-18 03:05:00,63.7,53.8,30.10,NW,315,4.0,4.0,70,0.00,,,0.00,WUHU216HW,2013-01-18 08:05:00,
2013-01-18 03:30:00,63.5,53.6,30.10,NW,315,2.2,2.2,70,0.00,,,0.00,WUHU216HW,2013-01-18 08:30:00,
2013-01-18 03:35:00,63.5,53.6,30.10,NW,315,2.2,2.2,70,0.00,,,0.00,WUHU216HW,2013-01-18 08:35:00,
2013-01-18 03:59:00,63.2,52.8,30.10,NW,315,4.0,4.0,69,0.00,,,0.00,WUHU216HW,2013-01-18 08:59:00,
2013-01-18 04:00:00,63.2,52.8,30.10,NW,315,4.0,4.0,69,0.00,,,0.00,WUHU216HW,2013-01-18 09:00:00,
2013-01-18 04:05:00,63.2,52.8,30.10,NW,315,4.0,4.0,69,0.00,,,0.00,WUHU216HW,2013-01-18 09:05:00,
2013-01-18 04:30:00,62.8,52.9,30.11,NW,315,6.0,6.0,70,0.00,,,0.00,WUHU216HW,2013-01-18 09:30:00,
2013-01-18 04:35:00,62.8,52.9,30.11,NW,315,6.0,6.0,70,0.00,,,0.00,WUHU216HW,2013-01-18 09:35:00,
2013-01-18 04:59:00,62.5,52.9,30.11,NNW,338,4.9,4.9,71,0.00,,,0.00,WUHU216HW,2013-01-18 09:59:00,
2013-01-18 05:00:00,62.5,52.9,30.11,NNW,338,4.9,4.9,71,0.00,,,0.00,WUHU216HW,2013-01-18 10:00:00,
2013-01-18 05:05:00,62.5,52.9,30.11,NNW,338,4.9,4.9,71,0.00,,,0.00,WUHU216HW,2013-01-18 10:05:00,
2013-01-18 05:30:00,61.2,51.5,30.12,NNW,338,1.8,1.8,70,0.00,,,0.00,WUHU216HW,2013-01-18 10:30:00,
2013-01-18 05:35:00,61.2,51.5,30.12,NNW,338,1.8,1.8,70,0.00,,,0.00,WUHU216HW,2013-01-18 10:35:00,
2013-01-18 05:59:00,61.0,50.9,30.13,NNW,338,5.6,5.6,69,0.00,,,0.00,WUHU216HW,2013-01-18 10:59:00,
2013-01-18 06:00:00,61.0,50.9,30.13,NNW,338,5.6,5.6,69,0.00,,,0.00,WUHU216HW,2013-01-18 11:00:00,
2013-01-18 06:05:00,61.0,50.9,30.13,NNW,338,5.6,5.6,69,0.00,,,0.00,WUHU216HW,2013-01-18 11:05:00,
2013-01-18 06:29:00,59.4,49.7,30.15,North,0,3.8,3.8,70,0.00,,,0.00,WUHU216HW,2013-01-18 11:29:00,
2013-01-18 06:30:00,59.4,49.7,30.15,North,0,3.8,3.8,70,0.00,,,0.00,WUHU216HW,2013-01-18 11:30:00,
2013-01-18 06:35:00,59.4,49.7,30.15,North,0,3.8,3.8,70,0.00,,,0.00,WUHU216HW,2013-01-18 11:35:00,
2013-01-18 07:00:00,58.7,48.5,30.16,North,0,4.9,4.9,69,0.00,,,0.00,WUHU216HW,2013-01-18 12:00:00,
2013-01-18 07:05:00,58.7,48.5,30.16,North,0,4.9,4.9,69,0.00,,,0.00,WUHU216HW,2013-01-18 12:05:00,
2013-01-18 07:30:00,57.2,47.9,30.18,NNE,23,7.6,7.6,71,0.00,,,0.00,WUHU216HW,2013-01-18 12:30:00,
2013-01-18 07:35:00,57.2,47.9,30.18,NNE,23,7.6,7.6,71,0.00,,,0.00,WUHU216HW,2013-01-18 12:35:00,
2013-01-18 07:59:00,56.5,46.9,30.19,NNW,338,3.4,3.4,70,0.00,,,0.00,WUHU216HW,2013-01-18 12:59:00,
2013-01-18 08:00:00,56.5,46.9,30.19,NNW,338,3.4,3.4,70,0.00,,,0.00,WUHU216HW,2013-01-18 13:00:00,
2013-01-18 08:05:00,56.5,46.9,30.19,NNW,338,3.4,3.4,70,0.00,,,0.00,WUHU216HW,2013-01-18 13:05:00,
2013-01-18 08:30:00,55.3,46.5,30.21,NNE,23,5.4,5.4,72,0.00,,,0.00,WUHU216HW,2013-01-18 13:30:00,
2013-01-18 08:35:00,55.3,46.5,30.21,NNE,23,5.4,5.4,72,0.00,,,0.00,WUHU216HW,2013-01-18 13:35:00,
2013-01-18 09:00:00,54.9,45.7,30.22,North,0,3.8,3.8,71,0.00,,,0.00,WUHU216HW,2013-01-18 14:00:00,
2013-01-18 09:05:00,54.9,45.7,30.22,North,0,3.8,3.8,71,0.00,,,0.00,WUHU216HW,2013-01-18 14:05:00,
2013-01-18 09:30:00,53.6,43.8,30.24,NNE,23,6.3,6.3,69,0.00,,,0.00,WUHU216HW,2013-01-18 14:30:00,
2013-01-18 09:35:00,53.6,43.8,30.24,NNE,23,6.3,6.3,69,0.00,,,0.00,WUHU216HW,2013-01-18 14:35:00,
2013-01-18 10:00:00,52.2,42.9,30.25,NW,315,3.4,3.4,70,0.00,,,0.00,WUHU216HW,2013-01-18 15:00:00,
2013-01-18 10:05:00,52.2,42.9,30.25,NW,315,3.4,3.4,70,0.00,,,0.00,WUHU216HW,2013-01-18 15:05:00,
2013-01-18 10:30:00,52.2,41.9,30.26,North,0,2.5,2.5,68,0.00,,,0.00,WUHU216HW,2013-01-18 15:30:00,
2013-01-18 10:35:00,52.2,41.9,30.26,North,0,2.5,2.5,68,0.00,,,0.00,WUHU216HW,2013-01-18 15:35:00,
2013-01-18 11:00:00,53.8,43.5,30.26,North,0,1.8,1.8,68,0.00,,,0.00,WUHU216HW,2013-01-18 16:00:00,
2013-01-18 11:05:00,53.8,43.5,30.26,North,0,1.8,1.8,68,0.00,,,0.00,WUHU216HW,2013-01-18 16:05:00,
2013-01-18 11:30:00,54.9,44.1,30.24,ESE,113,1.8,1.8,67,0.00,,,0.00,WUHU216HW,2013-01-18 16:30:00,
2013-01-18 11:35:00,54.9,44.1,30.24,ESE,113,1.8,1.8,67,0.00,,,0.00,WUHU216HW,2013-01-18 16:35:00,
2013-01-18 12:00:00,56.2,44.9,30.22,NW,315,1.6,1.6,66,0.00,,,0.00,WUHU216HW,2013-01-18 17:00:00,
2013-01-18 12:05:00,56.2,44.9,30.22,NW,315,1.6,1.6,66,0.00,,,0.00,WUHU216HW,2013-01-18 17:05:00,
2013-01-18 12:30:00,58.5,46.7,30.21,NNW,338,2.0,2.0,65,0.00,,,0.00,WUHU216HW,2013-01-18 17:30:00,
2013-01-18 12:35:00,58.5,46.7,30.21,NNW,338,2.0,2.0,65,0.00,,,0.00,WUHU216HW,2013-01-18 17:35:00,
2013-01-18 13:00:00,59.8,46.7,30.18,NNE,23,1.1,1.1,62,0.00,,,0.00,WUHU216HW,2013-01-18 18:00:00,
2013-01-18 13:05:00,59.8,46.7,30.18,NNE,23,1.1,1.1,62,0.00,,,0.00,WUHU216HW,2013-01-18 18:05:00,
2013-01-18 13:30:00,61.6,49.3,30.17,East,90,2.0,2.0,64,0.00,,,0.00,WUHU216HW,2013-01-18 18:30:00,
2013-01-18 13:35:00,61.6,49.3,30.17,East,90,2.0,2.0,64,0.00,,,0.00,WUHU216HW,2013-01-18 18:35:00,
2013-01-18 14:00:00,62.6,49.9,30.15,South,180,0.4,0.4,63,0.00,,,0.00,WUHU216HW,2013-01-18 19:00:00,
2013-01-18 14:05:00,62.6,49.9,30.15,South,180,0.4,0.4,63,0.00,,,0.00,WUHU216HW,2013-01-18 19:05:00,
2013-01-18 14:34:00,64.1,51.6,30.15,North,0,2.9,2.9,64,0.00,,,0.00,WUHU216HW,2013-01-18 19:34:00,
2013-01-18 14:35:00,64.1,51.6,30.15,North,0,2.9,2.9,64,0.00,,,0.00,WUHU216HW,2013-01-18 19:35:00,
2013-01-18 14:40:00,64.1,51.6,30.15,North,0,2.9,2.9,64,0.00,,,0.00,WUHU216HW,2013-01-18 19:40:00,
2013-01-18 15:00:00,64.6,51.3,30.15,NE,45,2.2,2.2,62,0.00,,,0.00,WUHU216HW,2013-01-18 20:00:00,
2013-01-18 15:05:00,64.6,51.3,30.15,NE,45,2.2,2.2,62,0.00,,,0.00,WUHU216HW,2013-01-18 20:05:00,
2013-01-18 15:30:00,65.5,51.8,30.14,ESE,113,3.1,3.1,61,0.00,,,0.00,WUHU216HW,2013-01-18 20:30:00,
2013-01-18 15:35:00,65.5,51.8,30.14,ESE,113,3.1,3.1,61,0.00,,,0.00,WUHU216HW,2013-01-18 20:35:00,
2013-01-18 15:59:00,66.1,53.1,30.15,ENE,68,1.8,1.8,63,0.00,,,0.00,WUHU216HW,2013-01-18 20:59:00,
2013-01-18 16:00:00,66.1,53.1,30.15,ENE,68,1.8,1.8,63,0.00,,,0.00,WUHU216HW,2013-01-18 21:00:00,
2013-01-18 16:05:00,66.1,53.1,30.15,ENE,68,1.8,1.8,63,0.00,,,0.00,WUHU216HW,2013-01-18 21:05:00,
2013-01-18 16:30:00,65.9,53.7,30.15,NE,45,2.9,2.9,65,0.00,,,0.00,WUHU216HW,2013-01-18 21:30:00,
2013-01-18 16:35:00,65.9,53.7,30.15,NE,45,2.9,2.9,65,0.00,,,0.00,WUHU216HW,2013-01-18 21:35:00,
2013-01-18 17:00:00,66.1,54.4,30.15,NNE,23,3.1,3.1,66,0.00,,,0.00,WUHU216HW,2013-01-18 22:00:00,
2013-01-18 17:05:00,66.1,54.4,30.15,NNE,23,3.1,3.1,66,0.00,,,0.00,WUHU216HW,2013-01-18 22:05:00,
2013-01-18 17:30:00,66.1,54.7,30.15,East,90,1.1,1.1,67,0.00,,,0.00,WUHU216HW,2013-01-18 22:30:00,
2013-01-18 17:35:00,66.1,54.7,30.15,East,90,1.1,1.1,67,0.00,,,0.00,WUHU216HW,2013-01-18 22:35:00,
2013-01-18 18:00:00,66.1,55.6,30.16,ESE,113,0.2,0.2,69,0.00,,,0.00,WUHU216HW,2013-01-18 23:00:00,
2013-01-18 18:05:00,66.1,55.6,30.16,ESE,113,0.2,0.2,69,0.00,,,0.00,WUHU216HW,2013-01-18 23:05:00,
2013-01-18 18:30:00,65.5,55.9,30.16,East,90,0.0,0.0,71,0.00,,,0.00,WUHU216HW,2013-01-18 23:30:00,
2013-01-18 18:35:00,65.5,55.9,30.16,East,90,0.0,0.0,71,0.00,,,0.00,WUHU216HW,2013-01-18 23:35:00,
2013-01-18 19:00:00,64.8,56.4,30.17,East,90,0.0,0.0,74,0.00,,,0.00,WUHU216HW,2013-01-19 00:00:00,
2013-01-18 19:05:00,64.8,56.4,30.17,East,90,0.0,0.0,74,0.00,,,0.00,WUHU216HW,2013-01-19 00:05:00,
2013-01-18 19:30:00,64.3,56.2,30.17,North,0,0.7,0.7,75,0.00,,,0.00,WUHU216HW,2013-01-19 00:30:00,
2013-01-18 19:35:00,64.3,56.2,30.17,North,0,0.7,0.7,75,0.00,,,0.00,WUHU216HW,2013-01-19 00:35:00,
2013-01-18 20:00:00,63.5,55.1,30.18,NNW,338,3.1,3.1,74,0.00,,,0.00,WUHU216HW,2013-01-19 01:00:00,
2013-01-18 20:01:00,63.5,55.1,30.18,NNW,338,3.1,3.1,74,0.00,,,0.00,WUHU216HW,2013-01-19 01:01:00,
2013-01-18 20:06:00,63.5,55.1,30.18,NNW,338,3.1,3.1,74,0.00,,,0.00,WUHU216HW,2013-01-19 01:06:00,
2013-01-18 20:30:00,63.0,54.5,30.18,NNE,23,2.7,2.7,74,0.00,,,0.00,WUHU216HW,2013-01-19 01:30:00,
2013-01-18 20:35:00,63.0,54.5,30.18,NNE,23,2.7,2.7,74,0.00,,,0.00,WUHU216HW,2013-01-19 01:35:00,
2013-01-18 21:00:00,62.8,54.7,30.18,East,90,0.4,0.4,75,0.00,,,0.00,WUHU216HW,2013-01-19 02:00:00,
2013-01-18 21:05:00,62.8,54.7,30.18,East,90,0.4,0.4,75,0.00,,,0.00,WUHU216HW,2013-01-19 02:05:00,
2013-01-18 21:30:00,62.8,55.1,30.18,NNE,23,1.8,1.8,76,0.00,,,0.00,WUHU216HW,2013-01-19 02:30:00,
2013-01-18 21:35:00,62.8,55.1,30.18,NNE,23,1.8,1.8,76,0.00,,,0.00,WUHU216HW,2013-01-19 02:35:00,
2013-01-18 21:59:00,63.0,55.3,30.19,NE,45,1.8,1.8,76,0.00,,,0.00,WUHU216HW,2013-01-19 02:59:00,
2013-01-18 22:00:00,63.0,55.3,30.19,NE,45,1.8,1.8,76,0.00,,,0.00,WUHU216HW,2013-01-19 03:00:00,
2013-01-18 22:05:00,63.0,55.3,30.19,NE,45,1.8,1.8,76,0.00,,,0.00,WUHU216HW,2013-01-19 03:05:00,
2013-01-18 22:29:00,62.3,55.3,30.18,North,0,5.8,5.8,78,0.00,,,0.00,WUHU216HW,2013-01-19 03:29:00,
2013-01-18 22:30:00,62.3,55.3,30.18,North,0,5.8,5.8,78,0.00,,,0.00,WUHU216HW,2013-01-19 03:30:00,
2013-01-18 22:35:00,62.3,55.3,30.18,North,0,5.8,5.8,78,0.00,,,0.00,WUHU216HW,2013-01-19 03:35:00,
2013-01-18 22:59:00,62.5,55.8,30.17,West,270,4.3,4.3,79,0.00,,,0.00,WUHU216HW,2013-01-19 03:59:00,
2013-01-18 23:00:00,62.5,55.8,30.17,West,270,4.3,4.3,79,0.00,,,0.00,WUHU216HW,2013-01-19 04:00:00,
2013-01-18 23:05:00,62.5,55.8,30.17,West,270,4.3,4.3,79,0.00,,,0.00,WUHU216HW,2013-01-19 04:05:00,
2013-01-18 23:29:00,62.5,55.8,30.17,NE,45,2.7,2.7,79,0.00,,,0.00,WUHU216HW,2013-01-19 04:29:00,
2013-01-18 23:30:00,62.5,55.8,30.17,NE,45,2.7,2.7,79,0.00,,,0.00,WUHU216HW,2013-01-19 04:30:00,
2013-01-18 23:35:00,62.5,55.8,30.17,NE,45,2.7,2.7,79,0.00,,,0.00,WUHU216HW,2013-01-19 04:35:00,